Location: Tyumen
(57.1527°N, 65.5323°E)
Time: 20:48:21
(UTC+05:00)

ISS - Visible Passes

Search period start: 24 September 2022 00:00
Search period end: 04 October 2022 00:00
Orbit: 414 x 417 km, 51.6° (Epoch: 24 September)

Date Brightness Start Highest point End Pass type
(mag) Time Alt. Az. Time Alt. Az. Time Alt. Az.
24 Sep -2.6 19:41:24 10° WSW 19:44:26 31° S 19:46:32 16° ESE visible
24 Sep -1.7 21:17:50 10° WSW 21:19:25 20° SW 21:19:25 20° SW visible
25 Sep -2.5 20:29:14 10° WSW 20:32:10 28° SSW 20:32:35 27° S visible
26 Sep -2.5 19:40:39 10° WSW 19:43:40 31° S 19:45:45 16° SE visible
26 Sep -1.3 21:17:28 10° WSW 21:18:38 15° SW 21:18:38 15° SW visible
27 Sep -2.0 20:28:40 10° WSW 20:31:18 21° SSW 20:31:47 21° S visible
28 Sep -2.1 19:39:57 10° WSW 19:42:48 25° SSW 19:44:58 14° SE visible
29 Sep -1.4 20:28:25 10° WSW 20:30:16 14° SSW 20:31:02 13° SSW visible
30 Sep -1.5 19:39:25 10° WSW 19:41:47 18° SSW 19:44:09 10° SSE visible
01 Oct -1.7 18:50:34 10° WSW 18:53:15 22° SSW 18:55:54 10° SSE visible
02 Oct -0.9 19:39:33 10° SW 19:40:35 11° SW 19:41:38 10° SSW visible
03 Oct -1.1 18:50:07 10° WSW 18:52:05 15° SSW 18:54:03 10° S visible
